Regional Weather Roundup
Issued by NWS

Home | Current Version | Previous Version | Graphics & Text | Print | Product List | Glossary On
Versions: 1 2 3 4 5 6 7 8 9 10 11 12 13 14 15 16 17 18 19 20 21 22 23 24 25 26 27 28 29 30 31 32 33 34 35 36 37 38 39 40 41 42 43 44 45 46 47 48 49 50
000
ASUS43 KMPX 172001
RWRMN
WEATHER ROUNDUP FOR MINNESOTA
NATIONAL WEATHER SERVICE TWIN CITIES/CHANHASSEN MN
300 PM CDT WED SEP 17 2014


NOTE: "FAIR" INDICATES FEW OR NO CLOUDS BELOW 12,000 FEET WITH NO
SIGNIFICANT WEATHER AND/OR OBSTRUCTIONS TO VISIBILITY. N/A MEANS
CURRENT SKY AND/OR WEATHER CONDITIONS ARE NOT AVAILABLE.

MNZ060>063-068>070-172100-
   Twin Cities Metro

CITY           SKY/WX    TMP DP  RH WIND       PRES   REMARKS
TWIN CITIES    MOSUNNY   75  52  44 VRB5      29.94S
ST PAUL        SUNNY     73  53  49 E3        29.94F
CRYSTAL        PTSUNNY   75  51  43 CALM      29.93S
BLAINE         PTSUNNY   72  52  49 CALM      29.94S
LAKEVILLE      MOSUNNY   73  54  49 CALM      29.94S
SOUTH ST PAUL  MOSUNNY   73  51  46 E5        29.94S
LAKE ELMO      CLOUDY    72  55  56 NW5       29.95S
$$
MNZ001>005-007-008-013>017-022>024-027-028-172100-
   Northwest Minnesota

CITY           SKY/WX    TMP DP  RH WIND       PRES   REMARKS
BEMIDJI        SUNNY     66  50  57 N9        29.98S
HALLOCK        MOSUNNY   59  45  58 NE6       30.05R
ROSEAU         CLOUDY    54  43  66 NE13      30.07R
WARROAD        CLOUDY    48  43  81 NE12      30.08S
THIEF RVR FALL SUNNY     61  48  63 NE12      30.01S
CROOKSTON      SUNNY     64  52  63 NE9       30.01R
FOSSTON        SUNNY     70  54  56 NE6       29.99S
DETROIT LAKES  SUNNY     72  45  37 E6        29.97S
MOORHEAD       SUNNY     72  50  46 N9        29.97S
PARK RAPIDS    SUNNY     72  44  36 N7        29.95F
MAHNOMEN       FAIR      71  47  42 N8        29.96F
$$
MNZ006-009>011-018-025>026-172100-
   North Central Minnesota

CITY           SKY/WX    TMP DP  RH WIND       PRES   REMARKS
BAUDETTE       MOSUNNY   56  43  61 NE8       30.05S
FLAG ISLAND    CLOUDY    46  37  71 NE8       30.08S
INTL FALLS     CLOUDY    53  41  63 NE9       30.05R
WASKISH        MOSUNNY   63  48  59 CALM      30.01S
BIG FORK       MOSUNNY   63  48  59 N8        30.00F
LONGVILLE      SUNNY     72  52  49 N5        29.96R
GRAND RAPIDS   SUNNY     66  46  48 N6        29.97S
CRANE LAKE     PTSUNNY   52  43  71 CALM      30.04S
ORR            MOSUNNY   61  41  48 NE3       29.98S
COOK           MOSUNNY   61  46  59 N7        30.00R
WALKER         FAIR      68  50  51 NE8       29.96S
$$
MNZ012-019>021-037-172100-
   Northeast Minnesota

CITY           SKY/WX    TMP DP  RH WIND       PRES   REMARKS
DULUTH         MOSUNNY   56  47  71 E17       29.99R
ELY            PTSUNNY   52  45  76 NE9       30.02R
HIBBING        MOSUNNY   63  49  60 N10       29.98R
EVELETH        SUNNY     61  46  59 N5        30.00R
DULUTH HARBOR  CLOUDY    52  48  87 NE25      30.02R
TWO HARBORS    CLOUDY    46  41  81 E16G25    30.02R
SILVER BAY     CLOUDY    43  43 100 NE7G18    30.04R
GRAND MARAIS     N/A     45  41  86 E15       30.07R
G MARAIS ARPRT CLOUDY    43  37  81 N6        30.04S
$$
MNZ029>031-032-039>041-046>048-054>057-064-172100-
   West Central Minnesota

CITY           SKY/WX    TMP DP  RH WIND       PRES   REMARKS
FERGUS FALLS   SUNNY     72  46  40 NE5       29.94F
WHEATON        SUNNY     72  52  49 NE6       29.96S
MORRIS         SUNNY     75  54  46 NE5       29.93S
ALEXANDRIA     MOSUNNY   72  53  51 E5        29.97S
ELBOW LAKE     FAIR      72  53  51 E5        29.95S
WADENA         SUNNY     72  48  43 CALM      29.95F
GLENWOOD       SUNNY     72  52  49 CALM      29.95S
APPLETON       PTSUNNY   75  54  46 NE6       29.93S
BENSON         SUNNY     73  54  49 CALM      29.93S
ORTONVILLE     SUNNY     73  52  46 CALM      29.94S
MADISON        SUNNY     75  57  53 E3        29.93S
WILLMAR        FAIR      73  54  49 E3        29.95S
$$
MNZ033>034-036-042>043-049>051-058-059-172100-
   Central Minnesota

CITY           SKY/WX    TMP DP  RH WIND       PRES   REMARKS
ST CLOUD       PTSUNNY   74  53  48 CALM      29.94S
SAUK CENTRE    FAIR      71  54  55 E3        29.95F
PAYNESVILLE    MOSUNNY   71  52  51 NE6       29.95S
AITKIN         SUNNY     75  50  41 CALM      29.94S
PINE RIVER     SUNNY     72  50  46 N5        29.99S
BRAINERD       SUNNY     70  46  42 NE3       29.96S
STAPLES        SUNNY     70  45  40 CALM      29.96S
LONG PRAIRIE   FAIR      70  52  52 CALM      29.96S HAZE
LITTLE FALLS   MOSUNNY   68  50  52 CALM      29.96R
LITCHFIELD     MOSUNNY   75  55  50 CALM      29.95S
BUFFALO        MOSUNNY   72  54  53 E3        29.95S
MAPLE LAKE     MOSUNNY   74  56  53 CALM      29.95S
$$
MNZ037-044-045-052-053-172100-
   East Central Minnesota

CITY           SKY/WX    TMP DP  RH WIND       PRES   REMARKS
PRINCETON      SUNNY     73  54  49 N1        29.95S
MORA           MOSUNNY   70  52  52 CALM      29.96F
CAMBRIDGE      PTSUNNY   73  55  53 E5        29.93S
RUSH CITY      MOSUNNY   71  52  51 CALM      29.95S
MOOSE LAKE     SUNNY     72  46  40 CALM      29.92S
HINCKLEY       FAIR      72  52  49 NW6       29.94S
CLOQUET        SUNNY     55  46  71 E15G22    29.98R
MCGREGOR       SUNNY     70  46  43 CALM      29.95S
$$
MNZ071>073-080-081-089-090-097-098-172100-
   Southwest Minnesota

CITY           SKY/WX    TMP DP  RH WIND       PRES   REMARKS
MONTEVIDEO     MOSUNNY   79  57  47 CALM      29.94S
GRANITE FALLS  SUNNY     74  55  51 CALM      29.94S
CANBY          MOSUNNY   71  56  59 NE3       29.95S
MARSHALL       SUNNY     73  54  49 CALM      29.93S
REDWOOD FALLS  SUNNY     76  53  44 VRB6      29.93S
OLIVIA         MOSUNNY   73  52  46 NE5       29.93S
PIPESTONE      PTSUNNY   73  54  49 E5        29.93S
WINDOM         MOSUNNY   72  57  60 E5        29.93F
WORTHINGTON    MOSUNNY   73  55  53 SE3       29.93F
JACKSON        CLOUDY    73  54  49 CALM      29.94F
TRACY          PTSUNNY   74  59  59 CALM      29.94S
SLAYTON        MOSUNNY   72  56  56 CALM      29.94F
$$
MNZ065>067-074>077-082>085-091>093-172100-
   South Central Minnesota

CITY           SKY/WX    TMP DP  RH WIND       PRES   REMARKS
MANKATO        SUNNY     73  52  46 SE6       29.94S
NEW ULM        MOSUNNY   72  57  60 SE5       29.93S
ST JAMES       MOSUNNY   75  55  50 CALM      29.94S
FAIRMONT       MOSUNNY   75  54  46 CALM      29.94S
GLENCOE        PTSUNNY   72  51  46 CALM      29.94R
FARIBAULT      SUNNY     75  46  35 NE3       29.95S
OWATONNA       SUNNY     73  52  46 CALM      29.95S
WASECA         SUNNY     72  46  40 E3        29.96S
ALBERT LEA     SUNNY     72  52  49 CALM      29.95S
$$
MNZ078>079-086>088-094>096-172100-
   Southeast Minnesota

CITY           SKY/WX    TMP DP  RH WIND       PRES   REMARKS
ROCHESTER      MOSUNNY   70  50  49 VRB5      29.97F
RED WING       SUNNY     73  50  43 SW5       29.93S
STANTON        SUNNY     74  52  46 SE3       29.93S
DODGE CENTER   MOSUNNY   72  52  49 SE5       29.96S
WINONA         MOSUNNY   72  52  49 CALM      29.95S
AUSTIN           N/A     70  52  52 CALM      29.95S
PRESTON        MOSUNNY   67  56  66 CALM      29.97F
$$
ABBREVIATIONS USED IN REMARKS
   TC - TEMPERATURES IN CELSIUS
  WCI - WIND CHILL INDEX
   HX - HEAT INDEX
  VSB - VISIBILITY
$$


USA.gov is the U.S. government's official web portal to all federal, state and local government web resources and services.